Regional Weather Roundup
Issued by NWS Sterling, VA

Home | Current Version | Previous Version | Text Only | Print | Product List | Glossary On
Versions: 1 2 3 4 5 6 7 8 9 10 11 12 13 14 15 16 17 18 19 20 21 22 23 24 25 26 27 28 29 30 31 32 33 34 35 36 37 38 39 40 41 42 43 44 45 46 47 48 49 50
000
ASUS41 KLWX 010610
RWRLWX

REGIONAL WEATHER ROUNDUP
NATIONAL WEATHER SERVICE BALTIMORE MD/WASHINGTON DC
200 AM EDT WED JUN 01 2016

Note: "FAIR" indicates few or no clouds below 12,000 feet
with no significant weather and/or obstructions to visibility.
 TC=TEMPERATURE CELSIUS

 * =Non NWS site. Station does not report precipitation (e.g. rain,
    snow, etc.), thunder, or fog.

DCZ001-MDZ009-015-VAZ040>042-051-053>054-010700-
WASHINGTON METRO

CITY           SKY/WX    TMP DP  RH WIND       PRES   REMARKS
WASHINGTON NAT MOCLDY    72  70  93 S5        29.99S
DULLES         FAIR      67  65  93 CALM      29.99F FOG
ANDREWS AFB    CLEAR     67  66  94 SW3       29.98F
FT BELVOIR     FAIR      66  64  94 CALM      29.99S
QUANTICO       FAIR      70  67  90 NW6       30.00R
COLLEGE PARK*  FAIR      64  63  94 CALM      29.98S
LEESBURG*      FAIR      68  64  88 CALM      30.00F
MANASSAS*      FAIR      64  64 100 CALM      30.00S

$$

MDZ006>007-011-014-010700-
BALTIMORE METRO

CITY           SKY/WX    TMP DP  RH WIND       PRES   REMARKS
BWI AIRPORT    CLEAR     65  63  93 CALM      29.98S
MD SCIENCE CTR   N/A     73  64  73 MISG      29.99S
MARTIN STATE   CLEAR     68  68 100 CALM      29.99S
ANNAPOLIS      CLEAR     69  68  96 CALM      29.97F
FORT MEADE*    CLEAR     61  61 100 CALM      30.01S

$$

MDZ012-015-019>023-010700-
MARYLAND EASTERN SHORE

CITY           SKY/WX    TMP DP  RH WIND       PRES   REMARKS
OCEAN CITY     CLEAR     66  65  96 CALM      29.99F
SALISBURY      CLOUDY    66  65  96 CALM      29.99S
BAY BRIDGE AP* CLEAR     72  68  88 S5        29.98S
CAMBRIDGE*       N/A     64  64 100 CALM      29.99R
EASTON*        CLEAR     69  69 100 CALM      30.02S

$$

MDZ017>025-010700-
SOUTHERN MARYLAND

CITY           SKY/WX    TMP DP  RH WIND       PRES   REMARKS
PATUXENT RIVER CLEAR     69  66  90 CALM      29.98S
ST INIGOES     PTCLDY    71  69  93 CALM      29.98S
LEONARDTOWN*   PTCLDY    66  64  94 S3        30.00S

$$

MDZ003>005-010700-
NORTH CENTRAL MARYLAND

CITY           SKY/WX    TMP DP  RH WIND       PRES   REMARKS
FREDERICK*     CLEAR     63  63 100 CALM      30.02S
HAGERSTOWN APT CLEAR     71  57  61 CALM      30.00S
WESTMINSTER*   CLEAR     70  66  88 CALM      30.01S

$$

MDZ501>502-010700-
WESTERN MARYLAND

CITY           SKY/WX    TMP DP  RH WIND       PRES   REMARKS
OAKLAND*       CLEAR     63  52  67 S6        30.11S
CUMBERLAND*    CLEAR     63  63 100 CALM      30.06S

$$

VAZ025>031-010700-
SHENANDOAH VALLEY

CITY           SKY/WX    TMP DP  RH WIND       PRES   REMARKS
WINCHESTER*    FAIR      61  59  94 CALM      30.01S
FRONT ROYAL*   FAIR      61  61 100 CALM      30.00F
LURAY*         FAIR      61  61 100 CALM      30.03R
NEW MARKET*    FAIR      60  59  99 CALM      30.03R
STAUNTON*      FAIR      61  59  93 CALM      30.06S
WAYNESBORO*    FAIR      64  62  94 CALM      30.05S

$$

WVZ021-048>050-054>055-010700-
EASTERN WEST VIRGINIA PANHANDLE

CITY           SKY/WX    TMP DP  RH WIND       PRES   REMARKS
MARTINSBURG    FAIR      62  59  90 CALM      29.99F
PETERSBURG*    FAIR      59  59  99 CALM      30.05S FOG

$$

VAZ036>039-050-010700-
CENTRAL FOOTHILLS

CITY           SKY/WX    TMP DP  RH WIND       PRES   REMARKS
CHARLOTTESVILL FAIR      67  60  78 CALM      30.01S
CULPEPER*      FAIR      66  66  99 CALM      30.01S
ORANGE*        FAIR      64  64 100 CALM      30.02S
GORDONSVILLE*  FAIR      65  65 100 CALM      30.01R
WARRENTON*     FAIR      65  60  85 CALM      30.00R HAZE

$$

VAZ055>057-010700-
NORTH AND CENTRAL PIEDMONT

CITY           SKY/WX    TMP DP  RH WIND       PRES   REMARKS
FREDERICKSBRG* FAIR      67  67 100 CALM      29.99S
STAFFORD*        N/A     62  61  96 CALM      30.03S

$$

NCZ024-NYZ072-PAZ021-071-VAZ022-071-010700-
OTHER REGIONAL OBSERVATIONS

CITY           SKY/WX    TMP DP  RH WIND       PRES   REMARKS
NEW YORK CITY  CLOUDY    72  65  78 NE3       30.02R
PHILADELPHIA   PTCLDY    70  65  84 SW5       29.99S
PITTSBURGH     CLEAR     69  52  54 CALM      30.01F
ROANOKE        FAIR      69  64  84 CALM      30.05S
RICHMOND       FAIR      67  65  93 CALM      29.99F
RALEIGH        PTCLDY    68  67  96 CALM      29.98F

$$

ANZ530>537-010700-
MARINE OBSERVATIONS

STATION/POSITION TIME  TEMP    WIND        PRES
                       AIR SEA DIR/SP/G
                 (UTC) (F)     (DEG/KT/KT) (MB)
THOMAS PT LIGHT  0600   72 69  230/  4/  4 1016.5F
BALT KEY BRIDGE  0500   74      CALM  /  1 1015.2S
COVE POINT       0500   71     210/  3/  4 1015.8F
LEWISETTA        0500   71 75  220/  7/  8 1015.0F
SOLOMONS ISLAND  0500   71 68  220/  1/  3   N/A
PINEY POINT      0500          190/  6/  7   N/A

$$




USA.gov is the U.S. government's official web portal to all federal, state and local government web resources and services.